Caro, MI

5:56 PM EDT on August 27, 2016 (GMT -0400)
Caro

Weather History for KCFS - January, 2014

Change the Weather History Date:

Tuesday, January 21, 2014

  Actual Average (KMBS) Record (KMBS)
Temperature  
Mean Temperature 0 °F 22 °F  
Max Temperature 7 °F 29 °F 39 °F (1997)
Min Temperature -9 °F 15 °F -2 °F (2000)
Degree Days  
Heating Degree Days 66    
Month to date heating degree days  
Since 1 July heating degree days  
Cooling Degree Days 0    
Month to date cooling degree days  
Year to date cooling degree days  
Moisture  
Dew Point -6 °F    
Average Humidity 68    
Maximum Humidity 79    
Minimum Humidity 54    
Precipitation  
Precipitation 0.00 in 0.05 in 0.25 in (1997)
Month to date precipitation 1.24  
Year to date precipitation 1.24  
Snow  
Snow 0.00 in - - ()
Month to date snowfall  
Since 1 July snowfall  
Snow Depth -    
Sea Level Pressure  
Sea Level Pressure 30.15 in    
Wind  
Wind Speed 9 mph (NNW)    
Max Wind Speed 14 mph    
Max Gust Speed 20 mph    
Visibility 10 miles    
Events      
T = Trace of Precipitation, MM = Missing Value Source: NWS Daily Summary

Daily Weather History Graph

Daily Weather History Graph

Search for Another Location

Airport or City:

Trip Planner

Search our weather history database for the weather conditions in past years. The results will help you decide how hot, cold, wet, or windy it might be!

Date:

Astronomy

Jan. 21, 2014 Rise Set
Actual Time 7:59 AM EST 5:30 PM EST
Civil Twilight 7:28 AM EST 6:02 PM EST
Nautical Twilight 6:53 AM EST 6:37 PM EST
Astronomical Twilight 6:19 AM EST 7:11 PM EST
Moon 11:14 PM EST (1/21) 10:18 AM EST (1/21)
Length of Visible Light 10h 33m
Length of Day
9h 30m
Waning Gibbous, 75% of the Moon is Illuminated
Jan 21
Waning Gibbous
Jan 24
Last Quarter
Jan 30
New
Feb 6
First Quarter
Feb 14
Full

Hourly Weather History & Observations

Time (EST) Temp. Windchill Dew Point Humidity Pressure Visibility Wind Dir Wind Speed Gust Speed Precip Events Conditions
12:14 AM 6.8 °F -5.9 °F -4.7 °F 59% 30.09 in 10.0 mi NNW 8.1 mph - N/A   Clear
12:34 AM 6.3 °F -7.5 °F -4.0 °F 63% 30.09 in 10.0 mi North 9.2 mph - N/A   Clear
12:54 AM 5.7 °F -8.2 °F -4.4 °F 63% 30.07 in 10.0 mi NNW 9.2 mph - N/A   Scattered Clouds
1:15 AM 5.2 °F -7.9 °F -5.1 °F 63% 30.08 in 10.0 mi NNW 8.1 mph - N/A   Clear
1:34 AM 5.0 °F -8.1 °F -5.1 °F 63% 30.08 in 10.0 mi NNW 8.1 mph - N/A   Clear
1:54 AM 4.8 °F -7.1 °F -4.9 °F 64% 30.08 in 10.0 mi NNW 6.9 mph - N/A   Clear
2:15 AM 4.3 °F -10.0 °F -4.2 °F 68% 30.08 in 10.0 mi NNW 9.2 mph - N/A   Clear
2:34 AM 4.3 °F -9.0 °F -4.4 °F 67% 30.09 in 10.0 mi NNW 8.1 mph - N/A   Clear
2:54 AM 3.9 °F -10.4 °F -4.5 °F 68% 30.10 in 10.0 mi NNW 9.2 mph - N/A   Clear
3:15 AM 3.7 °F -11.6 °F -4.5 °F 69% 30.10 in 10.0 mi NNW 10.4 mph - N/A   Clear
3:34 AM 3.7 °F -11.6 °F -4.4 °F 69% 30.10 in 10.0 mi NNW 10.4 mph - N/A   Clear
3:55 AM 3.6 °F -10.9 °F -4.2 °F 70% 30.10 in 10.0 mi NNW 9.2 mph - N/A   Clear
4:15 AM 3.2 °F -13.1 °F -4.4 °F 71% 30.10 in 10.0 mi NNW 11.5 mph - N/A   Clear
4:34 AM 3.2 °F -11.3 °F -4.4 °F 71% 30.10 in 10.0 mi NNW 9.2 mph - N/A   Clear
4:55 AM 3.0 °F -13.3 °F -4.4 °F 71% 30.10 in 10.0 mi NNW 11.5 mph - N/A   Clear
5:15 AM 3.0 °F -12.5 °F -4.4 °F 71% 30.11 in 10.0 mi NNW 10.4 mph - N/A   Clear
5:34 AM 3.0 °F -12.5 °F -4.4 °F 71% 30.11 in 10.0 mi NNW 10.4 mph - N/A   Clear
5:55 AM 3.0 °F -11.5 °F -4.2 °F 72% 30.11 in 10.0 mi NNW 9.2 mph - N/A   Clear
6:15 AM 3.2 °F -13.9 °F -4.4 °F 71% 30.11 in 10.0 mi NNW 12.7 mph - N/A   Clear
6:34 AM 3.0 °F -14.8 °F -4.5 °F 71% 30.12 in 10.0 mi NNW 13.8 mph - N/A   Clear
6:55 AM 2.1 °F -16.0 °F -4.9 °F 72% 30.12 in 10.0 mi NNW 13.8 mph - N/A   Clear
7:14 AM 1.4 °F -16.1 °F -5.3 °F 74% 30.12 in 10.0 mi NNW 12.7 mph - N/A   Clear
7:34 AM 1.0 °F -17.3 °F -5.6 °F 74% 30.14 in 10.0 mi NNW 13.8 mph - N/A   Clear
7:55 AM 0.5 °F -16.5 °F -6.2 °F 74% 30.14 in 10.0 mi NNW 11.5 mph - N/A   Clear
8:14 AM 0.3 °F -16.7 °F -6.3 °F 74% 30.16 in 10.0 mi NNW 11.5 mph - N/A   Clear
8:34 AM -0.0 °F -16.3 °F -6.7 °F 73% 30.16 in 10.0 mi NNW 10.4 mph - N/A   Clear
8:55 AM -0.0 °F -16.3 °F -6.3 °F 75% 30.17 in 10.0 mi NNW 10.4 mph - N/A   Scattered Clouds
9:14 AM 0.3 °F -16.7 °F -6.2 °F 74% 30.17 in 10.0 mi NNW 11.5 mph - N/A   Mostly Cloudy
9:35 AM 1.0 °F -14.9 °F -6.0 °F 72% 30.17 in 10.0 mi NNW 10.4 mph - N/A   Scattered Clouds
9:54 AM 1.9 °F -15.5 °F -6.0 °F 69% 30.18 in 10.0 mi NNW 12.7 mph - N/A   Clear
10:14 AM 2.8 °F -14.3 °F -5.3 °F 69% 30.18 in 10.0 mi NNW 12.7 mph - N/A   Clear
10:35 AM 3.6 °F -14.1 °F -4.9 °F 68% 30.18 in 10.0 mi NNW 13.8 mph - N/A   Scattered Clouds
10:54 AM 4.8 °F -11.1 °F -3.6 °F 68% 30.19 in 10.0 mi NNW 11.5 mph - N/A   Scattered Clouds
11:14 AM 5.0 °F -12.3 °F -3.8 °F 67% 30.19 in 10.0 mi North 13.8 mph 19.6 mph N/A   Clear
11:35 AM 5.0 °F -10.8 °F -4.0 °F 66% 30.19 in 10.0 mi NNW 11.5 mph - N/A   Clear
11:54 AM 5.0 °F -10.8 °F -3.8 °F 67% 30.19 in 10.0 mi NNW 11.5 mph - N/A   Clear
12:15 PM 5.0 °F -10.8 °F -3.8 °F 67% 30.19 in 10.0 mi NNW 11.5 mph - N/A   Clear
12:35 PM 5.5 °F -9.3 °F -3.3 °F 67% 30.17 in 10.0 mi NNW 10.4 mph - N/A   Clear
12:54 PM 5.5 °F -10.2 °F -3.3 °F 67% 30.17 in 10.0 mi NNW 11.5 mph - N/A   Clear
1:15 PM 5.9 °F -8.0 °F -3.3 °F 66% 30.17 in 10.0 mi NNW 9.2 mph - N/A   Clear
1:35 PM 5.9 °F -8.0 °F -3.5 °F 65% 30.16 in 10.0 mi North 9.2 mph - N/A   Clear
1:54 PM 6.3 °F -6.5 °F -3.5 °F 64% 30.16 in 10.0 mi NNW 8.1 mph - N/A   Clear
2:15 PM 6.4 °F -6.3 °F -3.3 °F 64% 30.16 in 10.0 mi North 8.1 mph - N/A   Clear
2:34 PM 6.6 °F -6.1 °F -3.5 °F 63% 30.16 in 10.0 mi NNW 8.1 mph - N/A   Clear
2:54 PM 6.8 °F -6.9 °F -3.6 °F 62% 30.16 in 10.0 mi NNW 9.2 mph - N/A   Clear
3:15 PM 7.2 °F -6.4 °F -3.6 °F 61% 30.16 in 10.0 mi NNW 9.2 mph - N/A   Scattered Clouds
3:34 PM 6.8 °F -7.8 °F -4.0 °F 61% 30.16 in 10.0 mi NNW 10.4 mph - N/A   Mostly Cloudy
3:55 PM 6.8 °F -7.8 °F -4.9 °F 59% 30.17 in 10.0 mi NNW 10.4 mph - N/A   Scattered Clouds
4:14 PM 6.8 °F -7.8 °F -5.8 °F 56% 30.17 in 10.0 mi NNW 10.4 mph - N/A   Scattered Clouds
4:34 PM 6.8 °F -7.8 °F -6.3 °F 55% 30.18 in 10.0 mi NNW 10.4 mph - N/A   Scattered Clouds
4:55 PM 5.9 °F -7.0 °F -7.4 °F 54% 30.18 in 10.0 mi NNW 8.1 mph - N/A   Clear
5:14 PM 5.5 °F -7.4 °F -7.2 °F 56% 30.18 in 10.0 mi NNW 8.1 mph - N/A   Clear
5:34 PM 4.5 °F -7.6 °F -7.2 °F 58% 30.18 in 10.0 mi NNW 6.9 mph - N/A   Clear
5:55 PM 4.1 °F -6.7 °F -7.2 °F 59% 30.18 in 10.0 mi NNW 5.8 mph - N/A   Clear
6:14 PM 3.7 °F -7.1 °F -7.6 °F 59% 30.19 in 10.0 mi NNW 5.8 mph - N/A   Clear
6:34 PM 2.3 °F -7.2 °F -7.8 °F 63% 30.18 in 10.0 mi North 4.6 mph - N/A   Clear
6:55 PM 2.7 °F - -8.0 °F 61% 30.18 in 10.0 mi Calm Calm - N/A   Clear
7:14 PM 1.8 °F -5.8 °F -8.1 °F 63% 30.18 in 10.0 mi North 3.5 mph - N/A   Clear
7:35 PM 0.9 °F - -8.0 °F 66% 30.19 in 10.0 mi Calm Calm - N/A   Clear
7:55 PM -1.3 °F - -8.3 °F 72% 30.18 in 10.0 mi Calm Calm - N/A   Clear
8:14 PM -1.3 °F -11.4 °F -7.8 °F 74% 30.17 in 10.0 mi North 4.6 mph - N/A   Clear
8:35 PM -1.7 °F - -8.5 °F 73% 30.17 in 10.0 mi Calm Calm - N/A   Clear
8:55 PM -3.3 °F - -10.3 °F 72% 30.17 in 10.0 mi Calm Calm - N/A   Clear
9:14 PM -3.8 °F - -9.9 °F 75% 30.17 in 10.0 mi Calm Calm - N/A   Clear
9:35 PM -4.9 °F - -10.3 °F 78% 30.17 in 10.0 mi Calm Calm - N/A   Clear
9:54 PM -5.4 °F - -11.2 °F 76% 30.17 in 10.0 mi Calm Calm - N/A   Clear
10:14 PM -6.5 °F - -11.6 °F 79% 30.17 in 10.0 mi Calm Calm - N/A   Clear
10:35 PM -7.4 °F - -13.2 °F 76% 30.17 in 10.0 mi Calm Calm - N/A   Clear
10:54 PM -7.6 °F - -13.2 °F 77% 30.17 in 10.0 mi Calm Calm - N/A   Clear
11:14 PM -8.5 °F - -13.9 °F 77% 30.17 in 10.0 mi Calm Calm - N/A   Clear
11:35 PM -8.7 °F - -14.8 °F 75% 30.16 in 10.0 mi Calm Calm - N/A   Clear
11:54 PM -9.0 °F - -14.8 °F 76% 30.16 in 10.0 mi Calm Calm - N/A   Clear